GFSFLT1_prec_precacc24_105.txt.gz
Total_Precipitation_Accumulation
0.00 0.00 0.00 0.00 0.00 0.00 0.00 0.01 0.04 0.14 0.18 0.24 0.21 0.10 0.08 0.03 0.03 0.01 0.02 0.06 0.06 0.08 0.08 0.08 0.12 0.12 0.11 0.29 0.39 0.45 0.61 0.44
0.00 0.00 0.00 0.00 0.00 0.00 0.00 0.01 0.05 0.07 0.06 0.07 0.07 0.01 0.03 0.05 0.04 0.10 0.03 0.03 0.09 0.12 0.08 0.07 0.06 0.06 0.12 0.26 0.43 0.45 0.59 0.59
0.00 0.00 0.00 0.00 0.00 0.00 0.00 0.00 0.02 0.01 0.02 0.05 0.06 0.11 0.12 0.22 0.21 0.21 0.14 0.03 0.05 0.08 0.07 0.08 0.12 0.12 0.05 0.26 0.35 0.38 0.49 0.45
0.00 0.00 0.00 0.00 0.00 0.00 0.00 0.01 0.02 0.01 0.01 0.03 0.07 0.16 0.21 0.36 0.32 0.27 0.23 0.24 0.19 0.14 0.17 0.19 0.14 0.21 0.17 0.19 0.28 0.24 0.33 0.36
0.00 0.00 0.00 0.00 0.00 0.00 0.00 0.01 0.02 0.01 0.02 0.02 0.02 0.01 0.00 0.01 0.04 0.19 0.28 0.54 0.70 0.56 0.29 0.26 0.24 0.19 0.30 0.27 0.29 0.32 0.32 0.33
0.00 0.00 0.00 0.00 0.00 0.00 0.00 0.05 0.04 0.01 0.03 0.02 0.04 0.03 0.04 0.06 0.05 0.06 0.10 0.23 0.27 0.48 0.50 0.43 0.46 0.34 0.34 0.38 0.36 0.37 0.28 0.29
0.00 0.00 0.00 0.00 0.08 0.04 0.00 0.03 0.04 0.05 0.04 0.04 0.05 0.03 0.05 0.05 0.03 0.04 0.07 0.08 0.09 0.10 0.23 0.21 0.30 0.42 0.46 0.58 0.54 0.42 0.32 0.30
0.01 0.01 0.01 0.00 0.05 0.19 0.13 0.14 0.05 0.03 0.03 0.05 0.06 0.08 0.06 0.06 0.05 0.06 0.11 0.08 0.07 0.04 0.11 0.17 0.20 0.26 0.28 0.38 0.47 0.55 0.42 0.33
0.02 0.03 0.03 0.02 0.02 0.11 0.24 0.36 0.28 0.21 0.20 0.20 0.21 0.19 0.18 0.17 0.15 0.20 0.13 0.04 0.04 0.08 0.08 0.20 0.27 0.42 0.51 0.44 0.47 0.44 0.52 0.43
0.06 0.06 0.08 0.07 0.08 0.27 0.30 0.27 0.21 0.31 0.43 0.34 0.32 0.31 0.32 0.34 0.30 0.42 0.37 0.19 0.14 0.15 0.08 0.21 0.35 0.43 0.59 0.68 0.53 0.49 0.49 0.54
0.03 0.06 0.14 0.22 0.56 0.87 0.98 0.87 0.67 0.57 0.60 0.56 0.50 0.44 0.40 0.44 0.38 0.42 0.38 0.34 0.23 0.21 0.16 0.21 0.23 0.45 0.63 0.75 0.63 0.57 0.64 0.60
0.02 0.07 0.15 0.35 0.48 0.75 0.93 1.10 1.28 1.04 0.91 0.89 0.73 0.52 0.47 0.39 0.39 0.33 0.35 0.24 0.27 0.20 0.18 0.15 0.19 0.31 0.58 0.85 0.94 0.67 0.66 0.72
0.00 0.02 0.06 0.26 0.46 0.62 0.75 1.01 1.57 1.29 0.82 0.86 0.75 0.62 0.64 0.46 0.36 0.35 0.24 0.18 0.19 0.17 0.08 0.11 0.09 0.15 0.34 0.95 1.23 1.11 0.68 0.61
0.02 0.02 0.02 0.07 0.16 0.31 0.41 0.71 1.06 1.05 1.11 0.95 0.78 0.63 0.62 0.53 0.47 0.39 0.33 0.16 0.08 0.10 0.06 0.06 0.06 0.06 0.12 0.38 0.77 0.99 0.83 0.67
0.02 0.03 0.03 0.04 0.08 0.13 0.26 0.72 0.81 0.77 1.18 1.19 1.06 0.98 0.84 0.60 0.51 0.48 0.39 0.32 0.09 0.08 0.07 0.09 0.07 0.04 0.14 0.23 0.30 0.50 0.72 0.79
0.02 0.04 0.05 0.06 0.07 0.07 0.14 0.26 0.71 0.82 1.15 1.65 1.55 1.18 1.10 1.19 1.26 0.99 0.44 0.40 0.20 0.10 0.06 0.04 0.07 0.03 0.05 0.11 0.21 0.30 0.52 0.74
0.03 0.05 0.05 0.07 0.07 0.08 0.11 0.17 0.24 0.47 0.60 0.98 1.40 1.79 1.07 1.07 1.31 1.41 0.90 0.49 0.38 0.13 0.09 0.07 0.06 0.04 0.11 0.10 0.12 0.15 0.20 0.33
0.05 0.07 0.08 0.10 0.12 0.13 0.14 0.20 0.22 0.33 0.46 0.86 1.02 1.29 1.67 1.20 1.28 1.43 1.63 1.16 0.78 0.57 0.23 0.11 0.08 0.06 0.12 0.11 0.14 0.08 0.13 0.10
0.16 0.13 0.16 0.15 0.16 0.18 0.18 0.20 0.25 0.32 0.45 0.60 0.74 0.69 1.17 1.45 1.06 1.01 1.09 1.21 1.21 1.01 0.49 0.22 0.10 0.09 0.14 0.15 0.18 0.05 0.12 0.16

GFSFLT1_prec_precacc24_108.txt.gz
Total_Precipitation_Accumulation
0.00 0.00 0.00 0.00 0.00 0.00 0.00 0.01 0.03 0.14 0.18 0.24 0.21 0.09 0.08 0.03 0.02 0.01 0.02 0.07 0.02 0.04 0.04 0.07 0.11 0.11 0.08 0.04 0.08 0.20 0.46 0.41
0.00 0.00 0.00 0.00 0.00 0.00 0.00 0.01 0.04 0.07 0.06 0.07 0.07 0.01 0.03 0.05 0.04 0.09 0.03 0.09 0.07 0.06 0.04 0.04 0.05 0.06 0.10 0.08 0.16 0.26 0.41 0.57
0.00 0.00 0.00 0.00 0.00 0.00 0.00 0.00 0.02 0.01 0.02 0.05 0.06 0.11 0.12 0.22 0.20 0.20 0.13 0.07 0.16 0.11 0.09 0.10 0.13 0.10 0.04 0.07 0.15 0.27 0.38 0.42
0.00 0.00 0.00 0.00 0.00 0.00 0.00 0.01 0.02 0.01 0.01 0.03 0.07 0.16 0.21 0.36 0.31 0.25 0.23 0.24 0.21 0.14 0.09 0.14 0.31 0.52 0.46 0.15 0.12 0.16 0.28 0.33
0.00 0.00 0.00 0.00 0.00 0.00 0.00 0.01 0.01 0.01 0.02 0.02 0.02 0.01 0.00 0.01 0.04 0.18 0.27 0.52 0.69 0.57 0.32 0.29 0.30 0.28 0.35 0.39 0.24 0.24 0.27 0.31
0.00 0.00 0.00 0.00 0.00 0.00 0.00 0.05 0.04 0.01 0.03 0.02 0.04 0.03 0.04 0.06 0.04 0.05 0.09 0.23 0.27 0.48 0.51 0.40 0.39 0.31 0.28 0.37 0.33 0.28 0.24 0.26
0.00 0.00 0.00 0.00 0.08 0.04 0.00 0.02 0.02 0.05 0.04 0.04 0.05 0.03 0.05 0.05 0.02 0.03 0.07 0.10 0.16 0.17 0.29 0.19 0.20 0.34 0.36 0.52 0.66 0.48 0.36 0.32
0.01 0.01 0.01 0.00 0.05 0.19 0.13 0.14 0.05 0.03 0.03 0.05 0.06 0.08 0.06 0.06 0.04 0.06 0.14 0.25 0.31 0.30 0.22 0.12 0.09 0.12 0.20 0.26 0.46 0.69 0.55 0.38
0.02 0.03 0.03 0.02 0.02 0.11 0.24 0.36 0.28 0.21 0.20 0.20 0.21 0.20 0.19 0.17 0.15 0.19 0.15 0.10 0.12 0.30 0.32 0.19 0.17 0.26 0.45 0.52 0.59 0.53 0.58 0.62
0.05 0.06 0.08 0.07 0.08 0.27 0.30 0.27 0.20 0.31 0.43 0.34 0.32 0.32 0.35 0.37 0.32 0.42 0.36 0.23 0.19 0.21 0.11 0.24 0.34 0.44 0.47 0.68 0.55 0.52 0.50 0.54
0.02 0.04 0.13 0.21 0.54 0.81 0.94 0.87 0.65 0.56 0.58 0.55 0.50 0.45 0.43 0.47 0.43 0.47 0.41 0.36 0.30 0.27 0.19 0.20 0.23 0.42 0.57 0.65 0.56 0.54 0.66 0.69
0.00 0.03 0.11 0.26 0.43 0.63 0.80 1.09 1.24 1.03 0.88 0.88 0.73 0.52 0.50 0.43 0.45 0.47 0.50 0.41 0.41 0.33 0.30 0.22 0.21 0.29 0.58 0.82 0.89 0.76 0.84 0.88
0.00 0.01 0.04 0.17 0.34 0.54 0.71 1.00 1.55 1.27 0.82 0.84 0.74 0.62 0.65 0.48 0.47 0.51 0.43 0.35 0.45 0.49 0.31 0.19 0.18 0.17 0.36 0.92 1.18 1.06 0.86 0.92
0.00 0.00 0.01 0.04 0.13 0.28 0.38 0.67 1.04 1.04 1.08 0.92 0.76 0.62 0.62 0.53 0.48 0.44 0.42 0.29 0.29 0.47 0.49 0.42 0.31 0.15 0.13 0.37 0.76 1.04 0.88 0.75
0.01 0.01 0.00 0.01 0.04 0.10 0.20 0.66 0.77 0.75 1.15 1.18 1.06 0.99 0.84 0.61 0.53 0.51 0.43 0.37 0.17 0.19 0.33 0.40 0.39 0.21 0.15 0.21 0.28 0.55 0.92 0.84
0.00 0.01 0.01 0.01 0.02 0.03 0.07 0.18 0.65 0.80 1.11 1.59 1.54 1.24 1.17 1.29 1.37 1.24 0.70 0.56 0.38 0.28 0.21 0.20 0.30 0.17 0.12 0.15 0.21 0.31 0.60 0.86
0.01 0.00 0.01 0.02 0.03 0.03 0.05 0.10 0.17 0.44 0.59 0.97 1.40 1.79 1.09 1.12 1.40 1.58 1.16 0.76 0.77 0.44 0.48 0.26 0.20 0.12 0.18 0.17 0.17 0.18 0.21 0.34
0.02 0.02 0.03 0.05 0.07 0.08 0.09 0.15 0.16 0.28 0.43 0.85 1.01 1.27 1.67 1.26 1.36 1.49 1.72 1.35 0.98 0.95 0.56 0.36 0.21 0.16 0.25 0.24 0.18 0.10 0.15 0.12
0.06 0.08 0.08 0.10 0.12 0.14 0.13 0.14 0.17 0.26 0.41 0.58 0.74 0.67 1.15 1.49 1.16 1.07 1.10 1.22 1.24 1.07 0.68 0.50 0.32 0.20 0.24 0.24 0.28 0.08 0.14 0.17

GFSFLT1_prec_precacc24_111.txt.gz
Total_Precipitation_Accumulation
0.00 0.00 0.00 0.00 0.00 0.00 0.00 0.01 0.01 0.07 0.17 0.24 0.21 0.09 0.08 0.03 0.02 0.01 0.04 0.14 0.04 0.06 0.03 0.01 0.04 0.08 0.07 0.04 0.04 0.04 0.04 0.13
0.00 0.00 0.00 0.00 0.00 0.00 0.00 0.01 0.02 0.05 0.06 0.07 0.07 0.01 0.02 0.05 0.04 0.09 0.03 0.18 0.13 0.02 0.02 0.03 0.04 0.06 0.10 0.07 0.08 0.05 0.09 0.26
0.00 0.00 0.00 0.00 0.00 0.00 0.00 0.00 0.00 0.01 0.02 0.05 0.06 0.11 0.12 0.22 0.20 0.20 0.13 0.07 0.18 0.11 0.08 0.08 0.13 0.21 0.15 0.11 0.20 0.14 0.16 0.31
0.00 0.00 0.00 0.00 0.00 0.00 0.00 0.00 0.00 0.01 0.01 0.03 0.07 0.16 0.21 0.36 0.31 0.25 0.23 0.24 0.21 0.17 0.13 0.17 0.37 0.78 0.92 0.91 0.95 0.83 0.58 0.43
0.00 0.00 0.00 0.00 0.00 0.00 0.00 0.00 0.00 0.01 0.02 0.02 0.02 0.01 0.00 0.01 0.04 0.17 0.26 0.52 0.70 0.59 0.36 0.39 0.36 0.43 0.51 0.64 0.75 0.82 0.88 0.47
0.00 0.00 0.00 0.00 0.00 0.00 0.00 0.00 0.00 0.01 0.03 0.02 0.04 0.03 0.04 0.06 0.04 0.05 0.09 0.22 0.28 0.54 0.61 0.51 0.48 0.41 0.33 0.31 0.27 0.24 0.25 0.36
0.00 0.00 0.00 0.00 0.08 0.04 0.00 0.00 0.01 0.05 0.04 0.04 0.05 0.03 0.05 0.05 0.02 0.03 0.06 0.10 0.16 0.22 0.45 0.36 0.38 0.50 0.44 0.49 0.61 0.50 0.37 0.29
0.01 0.01 0.01 0.00 0.03 0.17 0.13 0.12 0.03 0.03 0.03 0.05 0.06 0.08 0.06 0.06 0.04 0.06 0.13 0.25 0.31 0.32 0.45 0.40 0.31 0.37 0.38 0.31 0.44 0.85 0.91 0.54
0.02 0.03 0.03 0.02 0.01 0.09 0.22 0.31 0.24 0.19 0.19 0.20 0.21 0.20 0.19 0.17 0.15 0.19 0.15 0.10 0.12 0.32 0.64 0.61 0.48 0.43 0.51 0.67 0.71 0.69 0.95 1.06
0.04 0.05 0.08 0.06 0.04 0.20 0.25 0.21 0.15 0.26 0.38 0.33 0.31 0.31 0.36 0.37 0.33 0.43 0.37 0.24 0.19 0.22 0.18 0.39 0.49 0.48 0.46 0.76 0.68 0.60 0.58 0.84
0.02 0.03 0.10 0.11 0.14 0.25 0.46 0.59 0.52 0.50 0.54 0.52 0.48 0.43 0.43 0.47 0.44 0.49 0.43 0.37 0.31 0.29 0.22 0.39 0.45 0.57 0.60 0.56 0.52 0.51 0.63 0.77
0.00 0.01 0.05 0.13 0.19 0.37 0.52 0.78 1.05 1.00 0.85 0.84 0.70 0.49 0.49 0.43 0.45 0.47 0.53 0.46 0.46 0.39 0.37 0.47 0.37 0.47 0.66 0.74 0.69 0.68 0.80 0.98
0.00 0.00 0.02 0.10 0.21 0.34 0.50 0.79 1.37 1.20 0.80 0.77 0.63 0.58 0.63 0.47 0.46 0.51 0.43 0.37 0.47 0.58 0.46 0.51 0.43 0.35 0.44 0.94 1.06 0.99 0.87 1.08
0.00 0.00 0.00 0.02 0.11 0.24 0.35 0.62 0.94 0.95 1.04 0.83 0.67 0.53 0.60 0.52 0.47 0.44 0.42 0.29 0.30 0.53 0.60 0.63 0.69 0.46 0.34 0.41 0.72 1.04 0.89 0.95
0.00 0.00 0.00 0.00 0.02 0.09 0.18 0.62 0.70 0.70 1.09 1.08 0.97 0.92 0.82 0.60 0.52 0.50 0.42 0.37 0.17 0.25 0.47 0.56 0.81 0.83 0.71 0.37 0.35 0.57 0.88 0.86
0.00 0.00 0.00 0.00 0.00 0.01 0.03 0.14 0.59 0.74 1.03 1.48 1.43 1.18 1.14 1.27 1.36 1.23 0.70 0.56 0.38 0.29 0.25 0.28 0.57 0.88 0.45 0.33 0.27 0.32 0.62 0.79
0.00 0.00 0.00 0.00 0.01 0.02 0.03 0.06 0.11 0.38 0.56 0.93 1.36 1.77 1.07 1.11 1.39 1.56 1.15 0.75 0.78 0.52 0.56 0.38 0.29 0.47 0.59 0.34 0.41 0.28 0.32 0.33
0.02 0.02 0.02 0.03 0.05 0.07 0.08 0.12 0.12 0.20 0.38 0.84 0.99 1.26 1.67 1.25 1.35 1.48 1.72 1.35 0.98 0.97 0.63 0.51 0.40 0.34 0.66 0.46 0.47 0.25 0.23 0.15
0.05 0.04 0.05 0.07 0.09 0.11 0.10 0.13 0.12 0.20 0.35 0.52 0.72 0.66 1.15 1.49 1.15 1.08 1.12 1.25 1.28 1.12 0.78 0.58 0.42 0.39 0.42 0.70 0.60 0.25 0.20 0.22

GFSFLT1_prec_precacc24_114.txt.gz
Total_Precipitation_Accumulation
0.00 0.00 0.00 0.00 0.00 0.00 0.00 0.00 0.00 0.01 0.08 0.12 0.12 0.09 0.08 0.03 0.02 0.01 0.05 0.16 0.07 0.14 0.13 0.10 0.31 0.36 0.24 0.15 0.06 0.03 0.02 0.05
0.00 0.00 0.00 0.00 0.00 0.00 0.00 0.00 0.00 0.00 0.03 0.03 0.04 0.01 0.02 0.04 0.04 0.09 0.03 0.18 0.13 0.02 0.03 0.05 0.13 0.16 0.12 0.25 0.36 0.25 0.16 0.12
0.00 0.00 0.00 0.00 0.00 0.00 0.00 0.00 0.00 0.00 0.00 0.02 0.06 0.09 0.11 0.22 0.20 0.20 0.13 0.07 0.17 0.10 0.08 0.08 0.12 0.24 0.34 0.33 0.59 0.63 0.42 0.34
0.00 0.00 0.00 0.00 0.00 0.00 0.00 0.00 0.00 0.00 0.00 0.01 0.05 0.15 0.20 0.36 0.31 0.25 0.23 0.24 0.21 0.16 0.12 0.18 0.37 0.77 0.94 1.06 1.18 1.19 0.94 0.83
0.00 0.00 0.00 0.00 0.00 0.00 0.00 0.00 0.00 0.00 0.00 0.01 0.02 0.01 0.00 0.01 0.04 0.17 0.26 0.52 0.69 0.58 0.36 0.40 0.37 0.44 0.53 0.69 0.86 1.02 1.18 1.22
0.00 0.00 0.00 0.00 0.00 0.00 0.00 0.00 0.00 0.00 0.00 0.01 0.03 0.03 0.04 0.06 0.04 0.05 0.09 0.22 0.28 0.53 0.60 0.51 0.48 0.43 0.34 0.34 0.27 0.24 0.23 0.33
0.00 0.00 0.00 0.00 0.00 0.00 0.00 0.00 0.00 0.00 0.01 0.03 0.04 0.03 0.05 0.05 0.02 0.03 0.06 0.09 0.15 0.22 0.44 0.36 0.38 0.49 0.46 0.55 0.61 0.46 0.31 0.23
0.01 0.01 0.01 0.00 0.00 0.01 0.02 0.03 0.01 0.01 0.01 0.03 0.06 0.08 0.06 0.06 0.04 0.06 0.13 0.25 0.31 0.32 0.44 0.39 0.31 0.36 0.37 0.38 0.53 0.80 0.86 0.53
0.00 0.02 0.03 0.02 0.01 0.04 0.10 0.09 0.14 0.14 0.16 0.18 0.19 0.20 0.19 0.17 0.15 0.19 0.14 0.10 0.11 0.31 0.63 0.61 0.48 0.42 0.47 0.60 0.64 0.68 0.93 1.12
0.04 0.06 0.08 0.05 0.04 0.07 0.15 0.14 0.10 0.18 0.33 0.29 0.30 0.31 0.36 0.37 0.33 0.43 0.37 0.24 0.20 0.22 0.18 0.39 0.49 0.47 0.39 0.48 0.51 0.47 0.49 0.77
0.05 0.04 0.07 0.07 0.09 0.14 0.25 0.25 0.27 0.29 0.40 0.47 0.46 0.42 0.43 0.47 0.44 0.49 0.43 0.37 0.31 0.30 0.22 0.39 0.45 0.56 0.55 0.35 0.36 0.48 0.60 0.77
0.01 0.01 0.02 0.05 0.08 0.15 0.18 0.34 0.62 0.60 0.55 0.70 0.67 0.48 0.47 0.41 0.44 0.47 0.53 0.46 0.47 0.40 0.38 0.48 0.39 0.49 0.64 0.66 0.56 0.69 0.83 0.92
0.00 0.00 0.00 0.06 0.12 0.12 0.14 0.22 0.51 0.62 0.53 0.64 0.59 0.55 0.56 0.45 0.45 0.50 0.42 0.37 0.47 0.58 0.46 0.51 0.47 0.43 0.51 0.88 0.97 0.90 0.83 0.97
0.00 0.00 0.00 0.01 0.08 0.16 0.18 0.25 0.52 0.51 0.64 0.69 0.63 0.49 0.54 0.51 0.47 0.43 0.40 0.27 0.29 0.53 0.60 0.63 0.70 0.51 0.40 0.36 0.70 1.02 0.92 0.88
0.00 0.00 0.00 0.00 0.02 0.09 0.17 0.52 0.61 0.58 0.79 0.90 0.90 0.87 0.79 0.59 0.52 0.49 0.42 0.36 0.17 0.25 0.46 0.56 0.81 0.84 0.81 0.66 0.63 0.63 0.91 0.88
0.00 0.00 0.00 0.00 0.00 0.01 0.03 0.11 0.48 0.63 0.85 1.26 1.36 1.15 1.11 1.26 1.35 1.23 0.69 0.55 0.38 0.29 0.25 0.29 0.60 0.95 0.59 0.49 0.45 0.69 0.79 0.85
0.00 0.00 0.00 0.00 0.01 0.02 0.02 0.03 0.07 0.29 0.49 0.85 1.28 1.73 1.05 1.10 1.38 1.56 1.14 0.74 0.78 0.52 0.55 0.37 0.28 0.48 0.73 0.49 0.50 0.44 0.62 0.65
0.02 0.02 0.02 0.03 0.04 0.06 0.06 0.10 0.07 0.12 0.27 0.75 0.94 1.21 1.63 1.26 1.35 1.46 1.71 1.34 0.97 0.97 0.63 0.50 0.39 0.34 0.70 0.55 0.62 0.71 0.61 0.39
0.05 0.05 0.06 0.07 0.06 0.07 0.07 0.10 0.09 0.13 0.27 0.42 0.67 0.66 1.14 1.50 1.16 1.07 1.10 1.24 1.27 1.12 0.78 0.60 0.43 0.42 0.45 0.73 0.77 0.69 0.70 0.53

GFSFLT1_prec_precacc24_117.txt.gz
Total_Precipitation_Accumulation
0.00 0.00 0.00 0.00 0.00 0.00 0.00 0.00 0.00 0.00 0.04 0.07 0.04 0.07 0.07 0.03 0.02 0.01 0.05 0.17 0.10 0.17 0.21 0.33 0.61 0.68 0.61 0.55 0.31 0.20 0.16 0.15
0.00 0.00 0.00 0.00 0.00 0.00 0.00 0.00 0.00 0.00 0.01 0.01 0.02 0.01 0.01 0.02 0.03 0.09 0.03 0.18 0.13 0.02 0.03 0.09 0.23 0.26 0.23 0.41 0.63 0.56 0.51 0.45
0.00 0.00 0.00 0.00 0.00 0.00 0.00 0.00 0.00 0.00 0.00 0.00 0.00 0.00 0.01 0.14 0.18 0.20 0.13 0.07 0.17 0.10 0.07 0.07 0.11 0.24 0.35 0.34 0.64 0.71 0.54 0.58
0.00 0.00 0.00 0.00 0.00 0.00 0.00 0.00 0.00 0.00 0.00 0.00 0.01 0.06 0.14 0.24 0.29 0.25 0.23 0.24 0.21 0.16 0.11 0.16 0.36 0.76 0.93 1.04 1.16 1.25 0.97 0.88
0.00 0.00 0.00 0.00 0.00 0.00 0.00 0.00 0.00 0.00 0.00 0.00 0.00 0.00 0.00 0.01 0.04 0.17 0.26 0.52 0.69 0.58 0.35 0.38 0.35 0.43 0.50 0.65 0.82 0.99 1.21 1.23
0.05 0.02 0.01 0.01 0.01 0.00 0.00 0.00 0.00 0.00 0.00 0.00 0.00 0.00 0.00 0.00 0.01 0.05 0.09 0.22 0.28 0.53 0.59 0.50 0.47 0.42 0.33 0.32 0.24 0.22 0.23 0.34
0.05 0.07 0.05 0.03 0.01 0.00 0.00 0.00 0.00 0.00 0.00 0.00 0.01 0.01 0.00 0.01 0.00 0.03 0.06 0.09 0.15 0.22 0.44 0.36 0.37 0.49 0.45 0.53 0.59 0.45 0.30 0.22
0.05 0.01 0.01 0.03 0.02 0.00 0.00 0.01 0.00 0.00 0.01 0.01 0.01 0.01 0.02 0.02 0.02 0.05 0.13 0.25 0.31 0.31 0.44 0.39 0.30 0.35 0.36 0.36 0.52 0.80 0.86 0.50
0.18 0.06 0.02 0.01 0.01 0.01 0.02 0.04 0.03 0.04 0.05 0.05 0.09 0.14 0.17 0.15 0.14 0.19 0.14 0.10 0.11 0.31 0.63 0.60 0.48 0.41 0.45 0.59 0.63 0.67 0.89 1.03
0.35 0.21 0.07 0.03 0.03 0.03 0.05 0.06 0.07 0.11 0.16 0.14 0.16 0.24 0.33 0.36 0.32 0.43 0.37 0.24 0.20 0.22 0.18 0.39 0.48 0.46 0.37 0.45 0.45 0.41 0.43 0.64
0.29 0.19 0.11 0.06 0.06 0.06 0.13 0.12 0.14 0.19 0.27 0.29 0.28 0.31 0.35 0.45 0.44 0.49 0.43 0.37 0.31 0.30 0.22 0.39 0.45 0.56 0.54 0.33 0.25 0.32 0.37 0.57
0.11 0.10 0.07 0.05 0.06 0.09 0.11 0.16 0.26 0.31 0.33 0.47 0.41 0.35 0.38 0.37 0.43 0.47 0.53 0.46 0.47 0.40 0.38 0.48 0.39 0.49 0.65 0.64 0.44 0.54 0.59 0.71
0.03 0.02 0.01 0.01 0.04 0.05 0.07 0.13 0.31 0.30 0.24 0.37 0.36 0.42 0.50 0.42 0.44 0.50 0.42 0.37 0.47 0.58 0.46 0.51 0.47 0.43 0.51 0.85 0.81 0.64 0.59 0.77
0.00 0.00 0.00 0.00 0.05 0.07 0.09 0.12 0.23 0.27 0.27 0.36 0.37 0.37 0.50 0.49 0.46 0.42 0.40 0.27 0.29 0.52 0.59 0.63 0.70 0.51 0.40 0.34 0.60 0.83 0.67 0.70
0.00 0.00 0.00 0.00 0.01 0.05 0.09 0.23 0.31 0.50 0.47 0.36 0.49 0.74 0.75 0.57 0.51 0.49 0.42 0.36 0.16 0.24 0.46 0.56 0.81 0.84 0.79 0.62 0.57 0.50 0.72 0.70
0.00 0.00 0.00 0.00 0.00 0.01 0.02 0.09 0.25 0.40 0.62 0.60 0.55 0.85 1.07 1.26 1.35 1.23 0.69 0.55 0.38 0.28 0.25 0.28 0.59 0.95 0.60 0.47 0.38 0.58 0.62 0.72
0.00 0.00 0.00 0.00 0.01 0.02 0.02 0.03 0.04 0.15 0.27 0.33 0.50 1.09 0.98 1.09 1.38 1.56 1.14 0.74 0.78 0.52 0.55 0.37 0.27 0.49 0.73 0.50 0.50 0.44 0.63 0.75
0.02 0.02 0.02 0.03 0.04 0.06 0.07 0.11 0.06 0.06 0.16 0.50 0.69 0.81 1.38 1.19 1.33 1.47 1.71 1.35 0.97 0.96 0.63 0.50 0.39 0.35 0.71 0.54 0.64 0.75 0.63 0.47
0.05 0.05 0.06 0.07 0.06 0.06 0.08 0.09 0.08 0.07 0.12 0.26 0.37 0.42 0.91 1.44 1.12 1.06 1.09 1.25 1.27 1.12 0.79 0.61 0.44 0.45 0.48 0.76 0.81 0.76 0.75 0.56

GFSFLT1_prec_precacc24_123.txt.gz
Total_Precipitation_Accumulation
0.00 0.00 0.00 0.00 0.00 0.00 0.00 0.00 0.00 0.00 0.00 0.00 0.00 0.00 0.01 0.00 0.00 0.01 0.05 0.17 0.09 0.17 0.22 0.37 0.71 0.88 0.96 1.10 1.02 0.70 0.57 0.52
0.00 0.00 0.00 0.00 0.00 0.00 0.00 0.00 0.00 0.00 0.00 0.00 0.00 0.00 0.00 0.00 0.00 0.00 0.01 0.18 0.13 0.02 0.03 0.09 0.23 0.27 0.31 0.65 0.94 0.93 0.87 1.17
0.00 0.00 0.00 0.00 0.00 0.00 0.00 0.00 0.00 0.00 0.00 0.00 0.00 0.00 0.00 0.00 0.01 0.00 0.00 0.05 0.17 0.10 0.07 0.07 0.11 0.23 0.35 0.34 0.65 0.76 0.71 0.89
0.00 0.00 0.00 0.00 0.00 0.00 0.00 0.00 0.00 0.00 0.00 0.00 0.00 0.00 0.01 0.01 0.02 0.01 0.01 0.04 0.09 0.10 0.09 0.16 0.35 0.75 0.92 1.03 1.13 1.21 0.97 0.91
0.00 0.00 0.00 0.01 0.01 0.00 0.00 0.00 0.00 0.00 0.00 0.00 0.00 0.00 0.00 0.00 0.00 0.00 0.01 0.05 0.12 0.13 0.15 0.29 0.32 0.43 0.50 0.64 0.78 0.93 1.12 1.18
0.05 0.03 0.02 0.02 0.01 0.01 0.01 0.02 0.03 0.04 0.04 0.02 0.02 0.01 0.00 0.00 0.00 0.01 0.01 0.02 0.05 0.10 0.17 0.31 0.40 0.41 0.33 0.30 0.21 0.17 0.16 0.26
0.09 0.10 0.07 0.05 0.02 0.01 0.00 0.01 0.01 0.02 0.03 0.05 0.04 0.03 0.01 0.01 0.00 0.01 0.05 0.08 0.11 0.17 0.39 0.31 0.33 0.47 0.44 0.52 0.56 0.41 0.26 0.16
0.13 0.09 0.07 0.08 0.09 0.08 0.07 0.05 0.02 0.01 0.00 0.01 0.02 0.02 0.01 0.01 0.01 0.03 0.10 0.24 0.29 0.30 0.42 0.36 0.28 0.34 0.34 0.34 0.50 0.76 0.82 0.46
0.30 0.18 0.11 0.07 0.06 0.04 0.04 0.06 0.06 0.04 0.03 0.02 0.02 0.02 0.04 0.03 0.03 0.06 0.09 0.08 0.09 0.26 0.62 0.57 0.46 0.40 0.43 0.56 0.60 0.65 0.87 1.02
0.38 0.30 0.17 0.09 0.06 0.03 0.02 0.01 0.01 0.02 0.02 0.03 0.04 0.08 0.11 0.14 0.08 0.15 0.12 0.10 0.09 0.10 0.15 0.36 0.46 0.44 0.35 0.44 0.42 0.39 0.40 0.62
0.28 0.18 0.13 0.08 0.07 0.05 0.02 0.01 0.02 0.03 0.05 0.07 0.07 0.12 0.20 0.26 0.22 0.21 0.17 0.14 0.16 0.20 0.18 0.37 0.43 0.54 0.52 0.31 0.23 0.29 0.32 0.50
0.12 0.10 0.09 0.08 0.07 0.07 0.05 0.03 0.03 0.07 0.11 0.14 0.12 0.11 0.21 0.21 0.25 0.33 0.31 0.30 0.31 0.36 0.36 0.47 0.38 0.48 0.64 0.62 0.42 0.51 0.52 0.55
0.03 0.02 0.01 0.01 0.01 0.01 0.02 0.01 0.02 0.06 0.10 0.18 0.22 0.22 0.23 0.27 0.31 0.40 0.36 0.31 0.44 0.57 0.45 0.50 0.46 0.43 0.50 0.84 0.80 0.61 0.52 0.68
0.00 0.00 0.00 0.00 0.00 0.00 0.04 0.07 0.07 0.06 0.08 0.15 0.12 0.13 0.27 0.33 0.36 0.35 0.36 0.26 0.28 0.52 0.59 0.63 0.70 0.51 0.39 0.34 0.60 0.78 0.54 0.51
0.00 0.00 0.00 0.00 0.00 0.00 0.04 0.16 0.19 0.36 0.31 0.20 0.28 0.30 0.31 0.34 0.36 0.42 0.37 0.34 0.16 0.24 0.46 0.55 0.81 0.84 0.79 0.61 0.56 0.48 0.63 0.51
0.00 0.00 0.00 0.00 0.00 0.00 0.00 0.01 0.05 0.16 0.42 0.42 0.30 0.39 0.51 0.65 0.87 0.96 0.63 0.54 0.38 0.29 0.25 0.29 0.60 0.95 0.60 0.46 0.34 0.54 0.57 0.59
0.00 0.00 0.00 0.01 0.01 0.02 0.01 0.02 0.03 0.04 0.07 0.15 0.23 0.16 0.14 0.22 0.41 0.63 0.76 0.70 0.76 0.51 0.55 0.37 0.27 0.49 0.73 0.49 0.48 0.39 0.56 0.65
0.01 0.02 0.02 0.03 0.05 0.05 0.04 0.06 0.04 0.03 0.05 0.16 0.19 0.31 0.31 0.31 0.33 0.46 0.75 1.13 0.94 0.94 0.62 0.50 0.40 0.35 0.70 0.53 0.62 0.74 0.60 0.46
0.04 0.04 0.05 0.06 0.07 0.07 0.06 0.06 0.04 0.05 0.08 0.09 0.12 0.19 0.27 0.31 0.30 0.30 0.43 0.97 1.23 1.10 0.78 0.61 0.45 0.45 0.47 0.74 0.78 0.77 0.72 0.53

GFSFLT1_prec_precacc24_129.txt.gz
Total_Precipitation_Accumulation
0.00 0.00 0.00 0.00 0.00 0.00 0.00 0.00 0.00 0.00 0.00 0.00 0.00 0.00 0.00 0.00 0.00 0.01 0.06 0.17 0.09 0.17 0.22 0.37 0.71 0.88 0.95 1.11 1.03 0.75 0.67 0.75
0.00 0.00 0.00 0.00 0.00 0.00 0.00 0.00 0.00 0.00 0.00 0.00 0.00 0.00 0.00 0.00 0.00 0.00 0.01 0.18 0.12 0.01 0.03 0.08 0.23 0.27 0.30 0.64 0.94 0.93 0.89 1.24
0.00 0.00 0.00 0.00 0.00 0.00 0.00 0.00 0.00 0.00 0.00 0.00 0.00 0.00 0.00 0.00 0.00 0.00 0.00 0.04 0.16 0.09 0.06 0.06 0.11 0.22 0.34 0.33 0.64 0.75 0.70 0.91
0.00 0.00 0.00 0.00 0.00 0.00 0.00 0.00 0.00 0.00 0.00 0.00 0.00 0.00 0.00 0.00 0.00 0.00 0.00 0.01 0.04 0.07 0.08 0.15 0.35 0.75 0.91 1.01 1.13 1.21 0.97 0.91
0.00 0.00 0.00 0.01 0.01 0.00 0.00 0.00 0.00 0.00 0.00 0.00 0.00 0.00 0.00 0.00 0.00 0.00 0.00 0.00 0.05 0.07 0.08 0.17 0.22 0.38 0.46 0.63 0.77 0.91 1.11 1.18
0.05 0.03 0.02 0.02 0.01 0.01 0.01 0.02 0.03 0.04 0.04 0.02 0.01 0.01 0.00 0.00 0.00 0.00 0.00 0.00 0.03 0.08 0.11 0.12 0.15 0.23 0.20 0.20 0.18 0.16 0.15 0.26
0.09 0.10 0.07 0.05 0.02 0.01 0.00 0.01 0.01 0.02 0.04 0.05 0.04 0.03 0.02 0.01 0.00 0.00 0.00 0.03 0.07 0.14 0.24 0.21 0.21 0.22 0.19 0.25 0.34 0.33 0.24 0.15
0.13 0.09 0.07 0.08 0.09 0.09 0.07 0.05 0.03 0.01 0.00 0.01 0.02 0.03 0.04 0.04 0.03 0.01 0.04 0.18 0.24 0.29 0.37 0.34 0.26 0.31 0.32 0.31 0.43 0.66 0.78 0.45
0.30 0.18 0.11 0.07 0.06 0.05 0.04 0.05 0.06 0.04 0.03 0.02 0.02 0.01 0.01 0.01 0.01 0.01 0.03 0.08 0.08 0.25 0.57 0.51 0.37 0.30 0.35 0.51 0.58 0.62 0.84 0.99
0.38 0.30 0.17 0.09 0.06 0.03 0.02 0.01 0.00 0.00 0.00 0.01 0.01 0.02 0.04 0.04 0.04 0.03 0.03 0.07 0.07 0.08 0.13 0.22 0.23 0.24 0.20 0.31 0.39 0.35 0.37 0.59
0.28 0.18 0.13 0.08 0.05 0.03 0.01 0.00 0.00 0.00 0.00 0.00 0.00 0.01 0.03 0.04 0.07 0.09 0.07 0.05 0.09 0.10 0.07 0.20 0.25 0.25 0.17 0.14 0.16 0.22 0.27 0.48
0.12 0.10 0.09 0.08 0.06 0.04 0.03 0.02 0.02 0.01 0.00 0.00 0.00 0.01 0.04 0.05 0.07 0.16 0.20 0.23 0.21 0.21 0.22 0.33 0.23 0.27 0.29 0.23 0.16 0.31 0.45 0.52
0.03 0.02 0.01 0.01 0.01 0.01 0.01 0.00 0.00 0.00 0.00 0.00 0.00 0.00 0.01 0.03 0.11 0.17 0.20 0.20 0.29 0.41 0.40 0.42 0.39 0.31 0.32 0.28 0.23 0.20 0.40 0.65
0.00 0.00 0.00 0.00 0.00 0.00 0.01 0.01 0.01 0.00 0.00 0.00 0.00 0.01 0.01 0.01 0.01 0.06 0.10 0.14 0.22 0.44 0.54 0.60 0.66 0.47 0.34 0.27 0.29 0.48 0.44 0.47
0.00 0.00 0.00 0.00 0.00 0.00 0.00 0.00 0.00 0.00 0.00 0.00 0.01 0.02 0.01 0.01 0.02 0.04 0.05 0.06 0.08 0.18 0.41 0.53 0.80 0.82 0.75 0.57 0.54 0.43 0.59 0.48
0.00 0.00 0.00 0.00 0.00 0.00 0.00 0.00 0.00 0.00 0.00 0.00 0.03 0.08 0.07 0.11 0.12 0.25 0.26 0.17 0.19 0.20 0.20 0.28 0.58 0.95 0.59 0.45 0.33 0.53 0.56 0.57
0.00 0.00 0.00 0.01 0.01 0.01 0.01 0.01 0.01 0.00 0.01 0.02 0.01 0.01 0.03 0.06 0.09 0.17 0.26 0.28 0.43 0.41 0.50 0.33 0.26 0.49 0.71 0.47 0.47 0.39 0.56 0.64
0.01 0.02 0.02 0.03 0.04 0.04 0.04 0.04 0.01 0.01 0.01 0.03 0.02 0.02 0.03 0.10 0.11 0.08 0.12 0.22 0.22 0.43 0.45 0.45 0.38 0.35 0.68 0.51 0.60 0.74 0.60 0.46
0.02 0.03 0.04 0.05 0.07 0.07 0.06 0.05 0.03 0.02 0.03 0.04 0.05 0.06 0.08 0.13 0.16 0.15 0.13 0.11 0.12 0.18 0.35 0.45 0.39 0.44 0.44 0.72 0.76 0.76 0.72 0.53

GFSFLT1_prec_precacc24_132.txt.gz
Total_Precipitation_Accumulation
0.00 0.00 0.00 0.00 0.00 0.00 0.00 0.00 0.00 0.00 0.00 0.00 0.00 0.00 0.00 0.00 0.00 0.01 0.04 0.12 0.09 0.17 0.22 0.37 0.71 0.88 0.95 1.11 1.03 0.75 0.68 0.75
0.00 0.00 0.00 0.00 0.00 0.00 0.00 0.00 0.00 0.00 0.00 0.00 0.00 0.00 0.00 0.00 0.00 0.00 0.00 0.10 0.10 0.01 0.02 0.08 0.22 0.27 0.30 0.64 0.94 0.93 0.88 1.24
0.00 0.00 0.00 0.00 0.00 0.00 0.00 0.00 0.00 0.00 0.00 0.00 0.00 0.00 0.00 0.00 0.00 0.00 0.00 0.00 0.03 0.02 0.01 0.02 0.05 0.19 0.33 0.32 0.64 0.75 0.69 0.90
0.00 0.00 0.00 0.00 0.00 0.00 0.00 0.00 0.00 0.00 0.00 0.00 0.00 0.00 0.00 0.00 0.00 0.00 0.00 0.00 0.00 0.03 0.05 0.06 0.09 0.32 0.57 0.96 1.12 1.20 0.96 0.90
0.00 0.00 0.00 0.01 0.01 0.00 0.00 0.00 0.00 0.00 0.00 0.00 0.00 0.00 0.00 0.00 0.00 0.00 0.00 0.00 0.01 0.02 0.04 0.11 0.08 0.20 0.28 0.43 0.69 0.90 1.11 1.18
0.05 0.03 0.02 0.02 0.01 0.01 0.01 0.02 0.03 0.04 0.04 0.02 0.01 0.01 0.00 0.00 0.00 0.00 0.00 0.00 0.02 0.06 0.10 0.11 0.10 0.15 0.11 0.10 0.12 0.14 0.14 0.25
0.09 0.10 0.07 0.05 0.02 0.01 0.00 0.01 0.01 0.02 0.04 0.05 0.04 0.03 0.02 0.01 0.00 0.00 0.00 0.00 0.00 0.06 0.16 0.17 0.19 0.18 0.14 0.11 0.13 0.18 0.14 0.10
0.13 0.09 0.07 0.08 0.09 0.09 0.07 0.05 0.03 0.01 0.00 0.01 0.02 0.03 0.04 0.04 0.03 0.01 0.01 0.01 0.00 0.03 0.23 0.27 0.23 0.29 0.28 0.25 0.27 0.43 0.57 0.36
0.30 0.18 0.11 0.07 0.06 0.05 0.04 0.05 0.06 0.04 0.03 0.02 0.01 0.01 0.01 0.01 0.01 0.01 0.02 0.02 0.01 0.04 0.33 0.43 0.34 0.27 0.23 0.29 0.33 0.45 0.73 0.75
0.38 0.30 0.17 0.09 0.06 0.03 0.02 0.01 0.00 0.00 0.00 0.00 0.00 0.00 0.00 0.01 0.02 0.02 0.02 0.02 0.01 0.02 0.09 0.18 0.19 0.16 0.13 0.22 0.31 0.29 0.34 0.54
0.28 0.18 0.13 0.08 0.05 0.03 0.01 0.00 0.00 0.00 0.00 0.00 0.00 0.00 0.00 0.01 0.01 0.03 0.03 0.02 0.01 0.03 0.04 0.19 0.23 0.21 0.15 0.11 0.14 0.20 0.21 0.37
0.12 0.10 0.09 0.08 0.06 0.04 0.03 0.02 0.02 0.01 0.00 0.00 0.00 0.00 0.00 0.00 0.01 0.02 0.04 0.06 0.06 0.07 0.09 0.26 0.19 0.25 0.21 0.18 0.15 0.20 0.24 0.33
0.03 0.02 0.01 0.01 0.01 0.01 0.01 0.00 0.00 0.00 0.00 0.00 0.00 0.00 0.00 0.00 0.00 0.01 0.01 0.03 0.03 0.08 0.15 0.33 0.30 0.28 0.25 0.22 0.21 0.17 0.21 0.32
0.00 0.00 0.00 0.00 0.00 0.00 0.01 0.01 0.01 0.00 0.00 0.00 0.00 0.00 0.00 0.00 0.00 0.00 0.00 0.00 0.01 0.07 0.12 0.22 0.40 0.37 0.32 0.24 0.25 0.35 0.35 0.38
0.00 0.00 0.00 0.00 0.00 0.00 0.00 0.00 0.00 0.00 0.00 0.00 0.00 0.00 0.00 0.00 0.00 0.00 0.00 0.00 0.01 0.06 0.14 0.20 0.47 0.64 0.70 0.56 0.53 0.35 0.33 0.40
0.00 0.00 0.00 0.00 0.00 0.00 0.00 0.00 0.00 0.00 0.00 0.00 0.00 0.00 0.00 0.00 0.00 0.00 0.00 0.00 0.00 0.01 0.05 0.11 0.35 0.81 0.51 0.40 0.31 0.48 0.44 0.39
0.00 0.00 0.00 0.01 0.01 0.01 0.01 0.01 0.01 0.00 0.00 0.01 0.00 0.00 0.00 0.00 0.00 0.00 0.00 0.01 0.03 0.10 0.10 0.13 0.12 0.41 0.62 0.39 0.41 0.34 0.52 0.58
0.01 0.02 0.02 0.03 0.04 0.04 0.04 0.04 0.01 0.00 0.01 0.01 0.01 0.01 0.01 0.02 0.02 0.02 0.03 0.02 0.02 0.05 0.11 0.19 0.24 0.24 0.53 0.38 0.55 0.71 0.58 0.44
0.02 0.03 0.04 0.04 0.06 0.06 0.06 0.05 0.03 0.01 0.02 0.01 0.02 0.03 0.04 0.04 0.03 0.04 0.07 0.07 0.08 0.10 0.16 0.16 0.17 0.31 0.32 0.62 0.65 0.74 0.70 0.51

GFSFLT1_prec_precacc24_135.txt.gz
Total_Precipitation_Accumulation
0.00 0.00 0.00 0.00 0.00 0.00 0.00 0.00 0.00 0.00 0.00 0.00 0.00 0.00 0.00 0.00 0.00 0.01 0.02 0.04 0.06 0.12 0.19 0.36 0.70 0.87 0.95 1.10 1.03 0.75 0.68 0.75
0.00 0.00 0.00 0.00 0.00 0.00 0.00 0.00 0.00 0.00 0.00 0.00 0.00 0.00 0.00 0.00 0.00 0.00 0.00 0.00 0.01 0.01 0.01 0.06 0.21 0.25 0.30 0.64 0.92 0.92 0.85 1.23
0.00 0.00 0.00 0.00 0.00 0.00 0.00 0.00 0.00 0.00 0.00 0.00 0.00 0.00 0.00 0.00 0.00 0.00 0.00 0.00 0.00 0.00 0.00 0.01 0.02 0.08 0.23 0.28 0.50 0.66 0.64 0.85
0.00 0.00 0.00 0.00 0.00 0.00 0.00 0.00 0.00 0.00 0.00 0.00 0.00 0.00 0.00 0.00 0.00 0.00 0.00 0.00 0.00 0.00 0.00 0.01 0.02 0.05 0.07 0.18 0.25 0.45 0.51 0.68
0.00 0.00 0.00 0.01 0.01 0.00 0.00 0.00 0.00 0.00 0.00 0.00 0.00 0.00 0.00 0.00 0.00 0.00 0.00 0.00 0.00 0.00 0.00 0.00 0.02 0.04 0.06 0.07 0.13 0.24 0.42 0.88
0.05 0.03 0.02 0.02 0.01 0.01 0.01 0.02 0.03 0.04 0.04 0.02 0.01 0.01 0.00 0.00 0.00 0.00 0.00 0.00 0.00 0.00 0.00 0.00 0.01 0.03 0.04 0.05 0.06 0.08 0.07 0.06
0.09 0.10 0.07 0.05 0.02 0.01 0.00 0.01 0.01 0.02 0.04 0.05 0.04 0.03 0.02 0.01 0.00 0.00 0.00 0.00 0.00 0.00 0.00 0.00 0.00 0.01 0.04 0.06 0.06 0.07 0.07 0.06
0.13 0.09 0.07 0.08 0.09 0.09 0.07 0.05 0.03 0.01 0.00 0.01 0.02 0.03 0.04 0.04 0.03 0.01 0.01 0.01 0.00 0.00 0.00 0.00 0.00 0.00 0.02 0.10 0.13 0.14 0.16 0.15
0.30 0.18 0.11 0.07 0.06 0.05 0.04 0.05 0.06 0.04 0.03 0.02 0.01 0.01 0.00 0.01 0.01 0.01 0.02 0.02 0.01 0.01 0.01 0.01 0.00 0.00 0.01 0.05 0.09 0.17 0.26 0.26
0.38 0.30 0.17 0.09 0.06 0.03 0.02 0.01 0.00 0.00 0.00 0.00 0.00 0.00 0.00 0.00 0.01 0.01 0.01 0.02 0.01 0.01 0.02 0.02 0.01 0.01 0.01 0.03 0.07 0.11 0.16 0.19
0.28 0.18 0.13 0.08 0.05 0.03 0.01 0.00 0.00 0.00 0.00 0.00 0.00 0.00 0.00 0.00 0.00 0.00 0.01 0.01 0.01 0.01 0.00 0.01 0.01 0.01 0.02 0.02 0.06 0.14 0.15 0.22
0.12 0.10 0.09 0.08 0.06 0.04 0.03 0.02 0.02 0.01 0.00 0.00 0.00 0.00 0.00 0.00 0.00 0.01 0.01 0.01 0.01 0.01 0.01 0.01 0.02 0.03 0.06 0.08 0.11 0.18 0.18 0.16
0.03 0.02 0.01 0.01 0.01 0.01 0.01 0.00 0.00 0.00 0.00 0.00 0.00 0.00 0.00 0.00 0.00 0.00 0.00 0.00 0.00 0.00 0.00 0.01 0.05 0.09 0.13 0.10 0.13 0.14 0.13 0.10
0.00 0.00 0.00 0.00 0.00 0.00 0.01 0.01 0.01 0.00 0.00 0.00 0.00 0.00 0.00 0.00 0.00 0.00 0.00 0.00 0.00 0.00 0.00 0.00 0.02 0.06 0.09 0.12 0.18 0.29 0.23 0.13
0.00 0.00 0.00 0.00 0.00 0.00 0.00 0.00 0.00 0.00 0.00 0.00 0.00 0.00 0.00 0.00 0.00 0.00 0.00 0.00 0.00 0.00 0.00 0.00 0.01 0.01 0.13 0.34 0.39 0.25 0.25 0.25
0.00 0.00 0.00 0.00 0.00 0.00 0.00 0.00 0.00 0.00 0.00 0.00 0.00 0.00 0.00 0.00 0.00 0.00 0.00 0.00 0.00 0.00 0.00 0.01 0.03 0.08 0.17 0.19 0.21 0.42 0.37 0.33
0.00 0.00 0.00 0.01 0.01 0.01 0.01 0.01 0.01 0.00 0.00 0.00 0.00 0.00 0.00 0.00 0.00 0.00 0.00 0.00 0.00 0.00 0.01 0.01 0.01 0.04 0.18 0.19 0.16 0.24 0.39 0.55
0.01 0.01 0.01 0.02 0.03 0.03 0.03 0.03 0.01 0.00 0.00 0.00 0.00 0.01 0.01 0.01 0.01 0.01 0.01 0.01 0.01 0.01 0.02 0.03 0.03 0.04 0.09 0.14 0.24 0.56 0.49 0.39
0.02 0.02 0.02 0.03 0.04 0.04 0.04 0.04 0.03 0.00 0.01 0.01 0.01 0.02 0.02 0.03 0.02 0.02 0.03 0.03 0.03 0.04 0.06 0.07 0.06 0.11 0.12 0.15 0.31 0.56 0.63 0.45

GFSFLT1_prec_precacc24_138.txt.gz
Total_Precipitation_Accumulation
0.00 0.00 0.00 0.00 0.00 0.00 0.00 0.00 0.00 0.00 0.00 0.00 0.00 0.00 0.00 0.00 0.00 0.01 0.01 0.01 0.03 0.04 0.09 0.28 0.41 0.54 0.74 0.98 0.99 0.74 0.67 0.74
0.00 0.00 0.00 0.00 0.00 0.00 0.00 0.00 0.00 0.00 0.00 0.00 0.00 0.00 0.00 0.00 0.00 0.00 0.00 0.00 0.00 0.01 0.00 0.04 0.11 0.12 0.21 0.42 0.61 0.71 0.76 1.18
0.00 0.00 0.00 0.00 0.00 0.00 0.00 0.00 0.00 0.00 0.00 0.00 0.00 0.00 0.00 0.00 0.00 0.00 0.00 0.00 0.00 0.00 0.00 0.00 0.00 0.01 0.01 0.03 0.10 0.16 0.31 0.60
0.00 0.00 0.00 0.00 0.00 0.00 0.00 0.00 0.00 0.00 0.00 0.00 0.00 0.00 0.00 0.00 0.00 0.00 0.00 0.00 0.00 0.00 0.00 0.00 0.00 0.00 0.01 0.01 0.02 0.09 0.07 0.14
0.00 0.00 0.00 0.01 0.01 0.00 0.00 0.00 0.00 0.00 0.00 0.00 0.00 0.00 0.00 0.00 0.00 0.00 0.00 0.00 0.00 0.00 0.00 0.00 0.00 0.00 0.01 0.01 0.02 0.04 0.08 0.04
0.05 0.03 0.02 0.02 0.01 0.01 0.01 0.02 0.03 0.04 0.04 0.02 0.01 0.01 0.00 0.00 0.00 0.00 0.00 0.00 0.00 0.00 0.00 0.00 0.00 0.01 0.01 0.01 0.01 0.02 0.03 0.04
0.09 0.10 0.07 0.05 0.02 0.01 0.00 0.01 0.01 0.02 0.04 0.05 0.04 0.03 0.02 0.01 0.00 0.00 0.00 0.00 0.00 0.00 0.00 0.00 0.00 0.00 0.01 0.01 0.01 0.02 0.03 0.04
0.13 0.09 0.07 0.08 0.09 0.09 0.07 0.05 0.03 0.01 0.00 0.01 0.02 0.03 0.04 0.04 0.03 0.01 0.01 0.01 0.00 0.00 0.00 0.00 0.00 0.00 0.00 0.01 0.01 0.02 0.04 0.06
0.30 0.18 0.11 0.07 0.06 0.05 0.04 0.05 0.06 0.04 0.03 0.02 0.01 0.01 0.00 0.01 0.01 0.01 0.02 0.02 0.01 0.01 0.01 0.01 0.00 0.00 0.01 0.01 0.01 0.03 0.04 0.06
0.36 0.29 0.16 0.09 0.06 0.03 0.02 0.01 0.00 0.00 0.00 0.00 0.00 0.00 0.00 0.00 0.01 0.01 0.01 0.02 0.01 0.01 0.02 0.02 0.01 0.01 0.01 0.02 0.02 0.03 0.05 0.06
0.24 0.17 0.12 0.08 0.05 0.03 0.01 0.00 0.00 0.00 0.00 0.00 0.00 0.00 0.00 0.00 0.00 0.00 0.00 0.00 0.00 0.00 0.00 0.00 0.00 0.01 0.01 0.02 0.02 0.02 0.04 0.05
0.10 0.10 0.09 0.08 0.06 0.04 0.03 0.02 0.02 0.01 0.00 0.00 0.00 0.00 0.00 0.00 0.00 0.00 0.00 0.00 0.00 0.00 0.00 0.00 0.01 0.01 0.01 0.02 0.02 0.02 0.04 0.10
0.03 0.02 0.01 0.01 0.01 0.01 0.01 0.00 0.00 0.00 0.00 0.00 0.00 0.00 0.00 0.00 0.00 0.00 0.00 0.00 0.00 0.00 0.00 0.00 0.00 0.00 0.01 0.02 0.02 0.02 0.01 0.04
0.00 0.00 0.00 0.00 0.00 0.00 0.01 0.01 0.01 0.00 0.00 0.00 0.00 0.00 0.00 0.00 0.00 0.00 0.00 0.00 0.00 0.00 0.00 0.00 0.00 0.00 0.00 0.00 0.02 0.06 0.06 0.05
0.00 0.00 0.00 0.00 0.00 0.00 0.00 0.00 0.00 0.00 0.00 0.00 0.00 0.00 0.00 0.00 0.00 0.00 0.00 0.00 0.00 0.00 0.00 0.00 0.01 0.00 0.00 0.00 0.01 0.03 0.05 0.08
0.00 0.01 0.00 0.00 0.00 0.00 0.00 0.00 0.00 0.00 0.00 0.00 0.00 0.00 0.00 0.00 0.00 0.00 0.00 0.00 0.00 0.00 0.00 0.00 0.00 0.01 0.02 0.01 0.01 0.00 0.01 0.03
0.01 0.00 0.00 0.01 0.01 0.01 0.01 0.01 0.01 0.00 0.00 0.00 0.00 0.00 0.00 0.00 0.00 0.00 0.00 0.00 0.00 0.00 0.00 0.00 0.01 0.01 0.03 0.02 0.03 0.03 0.05 0.18
0.01 0.01 0.01 0.02 0.02 0.02 0.02 0.02 0.01 0.00 0.00 0.00 0.00 0.00 0.00 0.00 0.00 0.00 0.00 0.00 0.00 0.00 0.01 0.01 0.02 0.03 0.04 0.03 0.08 0.08 0.07 0.14
0.02 0.01 0.01 0.02 0.03 0.03 0.03 0.03 0.02 0.00 0.00 0.00 0.00 0.00 0.00 0.00 0.00 0.00 0.00 0.01 0.02 0.02 0.02 0.03 0.03 0.06 0.06 0.07 0.09 0.11 0.12 0.14

GFSFLT1_prec_precacc24_141.txt.gz
Total_Precipitation_Accumulation
0.00 0.00 0.00 0.00 0.00 0.00 0.00 0.00 0.00 0.00 0.00 0.00 0.00 0.00 0.00 0.00 0.00 0.01 0.01 0.00 0.00 0.01 0.01 0.05 0.11 0.21 0.37 0.58 0.74 0.56 0.52 0.61
0.00 0.00 0.00 0.00 0.00 0.00 0.00 0.00 0.00 0.00 0.00 0.00 0.00 0.00 0.00 0.00 0.00 0.00 0.00 0.00 0.00 0.00 0.00 0.00 0.00 0.02 0.09 0.25 0.32 0.39 0.39 0.80
0.00 0.00 0.00 0.00 0.00 0.00 0.00 0.00 0.00 0.00 0.00 0.00 0.00 0.00 0.00 0.00 0.00 0.00 0.00 0.00 0.00 0.00 0.00 0.00 0.00 0.00 0.00 0.01 0.02 0.07 0.18 0.34
0.00 0.00 0.00 0.00 0.00 0.00 0.00 0.00 0.00 0.00 0.00 0.00 0.00 0.00 0.00 0.00 0.00 0.00 0.00 0.00 0.00 0.00 0.00 0.00 0.00 0.00 0.00 0.00 0.00 0.01 0.03 0.07
0.00 0.00 0.00 0.00 0.01 0.00 0.00 0.00 0.00 0.00 0.00 0.00 0.00 0.00 0.00 0.00 0.00 0.00 0.00 0.00 0.00 0.00 0.00 0.00 0.00 0.00 0.01 0.01 0.00 0.01 0.02 0.03
0.00 0.01 0.01 0.01 0.00 0.01 0.01 0.02 0.03 0.04 0.04 0.02 0.01 0.01 0.00 0.00 0.00 0.00 0.00 0.00 0.00 0.00 0.00 0.00 0.00 0.01 0.01 0.01 0.01 0.01 0.01 0.02
0.04 0.03 0.02 0.02 0.01 0.01 0.00 0.01 0.01 0.02 0.04 0.05 0.04 0.03 0.02 0.01 0.00 0.00 0.00 0.00 0.00 0.00 0.00 0.00 0.00 0.00 0.01 0.01 0.01 0.01 0.02 0.02
0.08 0.08 0.06 0.06 0.07 0.08 0.07 0.05 0.03 0.01 0.00 0.01 0.02 0.03 0.04 0.04 0.03 0.01 0.01 0.01 0.00 0.00 0.00 0.00 0.00 0.00 0.00 0.01 0.00 0.01 0.01 0.03
0.13 0.13 0.10 0.07 0.05 0.04 0.04 0.05 0.06 0.04 0.03 0.02 0.01 0.01 0.00 0.01 0.01 0.01 0.02 0.02 0.01 0.01 0.01 0.01 0.00 0.00 0.01 0.00 0.01 0.01 0.02 0.02
0.05 0.12 0.13 0.09 0.06 0.03 0.02 0.01 0.00 0.00 0.00 0.00 0.00 0.00 0.00 0.00 0.01 0.01 0.01 0.02 0.01 0.01 0.02 0.02 0.01 0.00 0.00 0.01 0.01 0.02 0.02 0.02
0.01 0.01 0.05 0.05 0.04 0.03 0.01 0.00 0.00 0.00 0.00 0.00 0.00 0.00 0.00 0.00 0.00 0.00 0.00 0.00 0.00 0.00 0.00 0.00 0.00 0.00 0.01 0.01 0.02 0.02 0.02 0.03
0.00 0.01 0.02 0.03 0.03 0.03 0.02 0.02 0.02 0.01 0.00 0.00 0.00 0.00 0.00 0.00 0.00 0.00 0.00 0.00 0.00 0.00 0.00 0.00 0.01 0.00 0.00 0.01 0.02 0.02 0.04 0.07
0.00 0.00 0.00 0.01 0.01 0.01 0.01 0.00 0.00 0.00 0.00 0.00 0.00 0.00 0.00 0.00 0.00 0.00 0.00 0.00 0.00 0.00 0.00 0.00 0.00 0.00 0.00 0.01 0.01 0.01 0.01 0.03
0.00 0.00 0.00 0.00 0.00 0.00 0.01 0.01 0.01 0.00 0.00 0.00 0.00 0.00 0.00 0.00 0.00 0.00 0.00 0.00 0.00 0.00 0.00 0.00 0.00 0.00 0.00 0.00 0.01 0.00 0.01 0.02
0.00 0.00 0.00 0.00 0.00 0.00 0.00 0.00 0.00 0.00 0.00 0.00 0.00 0.00 0.00 0.00 0.00 0.00 0.00 0.00 0.00 0.00 0.00 0.00 0.01 0.00 0.00 0.00 0.00 0.00 0.00 0.02
0.01 0.01 0.01 0.01 0.01 0.01 0.01 0.00 0.00 0.00 0.00 0.00 0.00 0.00 0.00 0.00 0.00 0.00 0.00 0.00 0.00 0.00 0.00 0.00 0.00 0.00 0.01 0.00 0.00 0.00 0.00 0.00
0.08 0.11 0.12 0.09 0.05 0.02 0.01 0.00 0.00 0.00 0.00 0.00 0.00 0.00 0.00 0.00 0.00 0.00 0.00 0.00 0.00 0.00 0.00 0.00 0.00 0.01 0.01 0.01 0.00 0.00 0.00 0.00
0.01 0.01 0.01 0.01 0.01 0.01 0.02 0.03 0.01 0.00 0.00 0.00 0.00 0.00 0.00 0.00 0.00 0.00 0.00 0.00 0.00 0.00 0.00 0.00 0.00 0.01 0.00 0.00 0.00 0.01 0.02 0.03
0.01 0.01 0.01 0.02 0.04 0.06 0.09 0.08 0.03 0.00 0.00 0.00 0.00 0.00 0.00 0.00 0.00 0.00 0.00 0.00 0.01 0.01 0.00 0.00 0.00 0.01 0.00 0.00 0.01 0.03 0.05 0.07